Dewpoint
45 45 44 44 44 44 44 42 43 44 43 44 46 45 46 49 52 54 58 56 53 49 49 47 46 48 44 37 33 39 45 45 45 40 34 30 29 28 26 23 23 24 26 27 28 30 27
45 45 45 44 44 44 42 43 44 42 42 43 41 45 42 48 48 52 57 55 50 48 49 47 46 47 40 33 30 32 36 38 39 39 34 34 30 30 29 27 25 24 24 25 27 27 30
43 44 43 42 44 42 43 44 46 44 41 42 42 44 44 44 46 51 56 51 50 48 48 47 46 44 39 34 30 33 36 36 36 36 34 34 33 31 30 28 29 28 27 29 27 30 29
43 42 42 43 39 43 44 45 46 45 44 43 41 42 42 44 47 51 52 51 50 47 46 46 46 41 35 34 32 30 29 30 34 36 36 36 35 33 32 32 31 28 28 28 27 29 31
42 41 41 40 40 43 45 45 45 45 44 43 42 43 44 44 47 54 51 51 49 47 46 47 43 40 31 36 30 30 35 33 33 35 36 35 35 34 33 31 28 28 24 25 26 29 29
44 42 40 41 40 41 42 44 45 44 44 43 44 44 45 44 49 52 51 48 47 46 45 43 40 37 30 26 32 33 35 36 36 35 35 37 36 31 30 28 21 24 29 28 26 28 29
41 44 42 40 40 39 41 43 45 44 44 43 42 43 45 44 46 52 48 45 38 38 40 34 33 26 24 31 36 35 38 39 38 35 30 32 30 29 27 28 27 30 30 30 33 28 26
40 43 43 39 39 40 41 43 43 44 44 43 44 44 45 44 45 50 47 39 37 39 32 36 32 30 32 33 32 35 39 35 32 28 29 29 28 26 30 29 31 31 30 31 33 31 30
37 42 42 37 39 40 42 44 43 44 44 44 44 44 45 44 46 48 41 40 44 42 31 34 33 31 31 34 32 33 38 33 31 26 25 26 27 30 35 34 33 32 30 31 32 34 33
36 38 38 40 40 42 44 44 44 43 43 43 44 44 44 44 45 45 41 41 45 41 32 30 32 32 35 35 34 37 39 38 33 29 30 30 30 35 35 32 32 29 33 34 34 31 28
36 39 40 40 42 44 44 43 44 44 44 43 43 44 44 44 40 40 42 42 45 38 23 29 31 36 36 33 37 38 42 38 33 32 34 32 33 35 34 33 38 34 35 34 34 33 33
36 39 40 42 44 43 44 43 44 43 43 44 44 44 44 43 42 41 44 44 40 29 22 23 31 32 33 34 36 37 39 39 38 36 36 34 36 36 36 35 37 38 36 36 35 35 28
36 39 41 44 43 43 43 43 43 43 43 44 44 44 44 43 38 43 43 40 28 25 23 25 27 31 32 31 35 36 33 34 32 29 29 30 34 36 37 35 37 38 33 28 27 27 25
36 40 41 43 43 44 43 43 44 44 46 46 45 45 43 41 42 45 41 32 24 26 20 25 28 30 32 31 32 33 31 31 33 31 30 29 28 34 38 37 33 36 30 27 23 25 26
38 40 42 43 44 43 44 44 44 45 47 47 47 45 42 43 44 44 36 26 28 25 24 26 28 27 29 30 32 33 33 31 33 36 31 30 30 38 38 36 35 31 28 28 26 23 22
39 40 42 43 43 44 45 44 43 47 44 43 41 42 40 43 46 42 32 30 29 24 26 27 24 27 23 28 30 31 29 34 35 37 37 35 30 36 34 34 33 30 27 27 28 22 20
39 42 43 43 44 45 45 44 47 47 47 45 37 36 44 47 44 36 29 31 27 28 28 26 24 24 25 26 27 28 32 36 35 33 34 32 32 29 32 31 30 29 24 23 23 23 17
41 42 42 43 44 45 45 47 47 47 46 43 36 30 44 43 32 33 32 32 28 30 31 29 28 25 25 27 28 29 32 35 34 34 30 31 30 28 28 31 32 32 24 22 21 20 20
41 42 43 43 45 46 46 47 48 47 47 42 35 34 42 43 30 32 33 30 29 28 30 30 28 29 28 28 28 30 32 33 34 33 31 28 27 28 26 28 29 27 25 24 23 24 19
42 42 42 44 45 45 45 46 47 48 48 44 38 30 36 37 38 31 28 24 27 33 32 32 30 29 28 29 30 30 31 33 33 34 33 31 27 27 24 27 29 26 25 23 25 22 15
43 41 43 44 43 44 45 45 47 48 48 43 38 34 36 32 31 34 30 25 26 29 32 31 28 26 26 27 28 29 29 30 31 32 31 30 28 27 25 27 28 27 26 24 23 21 19
43 42 42 44 43 44 45 45 47 48 47 41 36 34 35 33 35 33 29 24 26 30 31 27 26 26 26 27 27 27 26 26 29 28 29 30 28 28 24 24 26 26 27 26 26 24 22
43 42 43 43 45 45 45 46 48 49 46 40 41 40 34 32 34 30 26 26 29 31 32 30 28 29 31 32 31 31 31 30 30 29 28 28 29 29 24 23 23 20 23 26 28 28 26
43 42 44 44 45 44 45 48 49 47 46 41 41 36 28 29 31 33 30 30 31 31 31 33 32 30 33 32 32 31 30 29 28 28 28 27 27 29 26 24 18 20 26 27 26 28 29
42 43 44 44 44 46 49 49 48 45 42 39 37 36 30 31 32 31 31 31 32 33 34 34 34 33 33 32 28 27 25 27 28 29 27 26 23 22 22 17 17 20 24 25 25 24 28
43 43 44 45 45 49 49 48 43 42 38 36 36 38 34 31 32 30 32 31 29 30 32 33 34 36 35 28 24 21 20 23 23 24 28 28 26 23 19 16 8 20 26 28 28 18 27
43 43 44 44 45 49 48 46 44 41 38 36 35 37 36 34 30 31 31 32 33 32 31 33 33 33 34 26 22 21 21 25 19 20 22 24 24 22 20 18 19 23 27 28 19 21 27
43 43 45 44 46 49 47 46 43 40 37 36 35 35 36 32 30 31 31 32 33 33 29 33 32 32 29 25 24 23 21 23 22 23 22 23 22 20 22 20 16 25 28 24 26 28 28
42 44 44 44 46 48 46 45 43 42 39 37 34 33 34 33 31 31 31 32 32 32 33 33 32 32 31 26 26 25 22 24 22 16 26 21 24 21 22 21 25 27 28 29 29 28 29
Wind_Speed
20 20 20 21 22 21 22 21 22 22 23 23 24 26 25 27 27 34 19 17 13 9 8 9 4 5 5 6 8 11 1 3 7 4 6 6 8 10 16 13 17 24 23 25 26 25 28
21 20 22 21 21 22 23 23 22 21 21 23 23 25 27 26 30 32 16 16 12 8 8 8 7 8 7 9 4 3 5 7 9 7 8 7 6 7 12 17 20 20 21 23 25 26 24
22 22 23 24 25 26 26 24 22 21 21 20 23 23 25 28 34 37 17 14 11 8 8 7 6 8 7 10 1 5 4 6 8 10 12 9 9 9 7 12 19 18 22 25 29 23 26
24 24 25 24 27 26 27 26 21 19 20 21 21 23 25 29 29 35 20 14 13 9 8 5 6 7 5 3 2 7 9 8 10 11 12 12 12 16 18 13 21 21 21 23 14 26 27
26 25 26 27 29 27 28 26 24 20 19 22 20 22 23 28 33 4 16 13 11 9 7 9 9 7 3 6 6 6 7 8 8 11 13 13 14 19 14 15 14 14 21 21 22 22 21
27 26 22 26 26 27 27 27 24 21 20 19 21 19 20 24 31 13 16 15 9 9 7 7 0 5 6 4 6 3 2 5 10 12 13 14 9 13 12 14 18 15 12 19 20 18 24
29 27 26 24 28 29 30 28 26 22 21 19 22 20 18 21 19 16 20 13 8 2 9 9 6 0 6 5 4 4 4 5 10 8 13 14 10 15 19 22 24 16 21 18 13 17 22
29 29 27 24 26 28 27 27 26 23 20 21 19 20 18 19 18 7 7 3 6 3 5 18 5 7 4 2 2 5 4 6 8 12 12 7 17 20 13 15 20 20 19 22 18 13 14
30 28 26 27 26 29 28 28 27 23 20 18 17 18 16 15 23 11 12 7 1 4 4 5 13 5 4 7 3 5 8 4 11 13 13 15 14 13 12 14 15 18 21 16 9 15 18
30 29 28 28 29 29 31 28 25 23 20 18 16 15 14 10 4 2 7 8 3 5 3 8 8 5 7 4 0 3 4 4 4 8 8 12 13 12 11 11 13 15 15 12 9 13 5
30 30 28 29 30 31 31 28 28 26 23 19 17 15 13 7 1 2 7 10 7 6 6 10 8 6 6 4 5 5 5 5 10 7 1 3 8 7 6 5 11 4 8 9 3 2 10
30 30 30 31 33 34 30 30 27 25 23 20 18 14 12 6 11 9 4 10 5 5 6 6 7 9 6 6 4 3 4 5 7 6 11 14 9 5 5 10 6 14 6 8 9 5 6
29 29 31 31 34 31 32 31 30 28 28 23 22 19 12 7 4 8 12 9 5 6 4 8 9 8 6 5 8 9 6 8 4 4 2 3 1 5 3 5 5 3 8 2 5 1 6
29 30 32 33 35 34 34 32 31 31 31 30 34 29 19 15 8 12 11 4 8 6 4 6 11 13 5 8 1 2 4 3 6 7 4 5 0 3 1 4 3 6 5 7 2 5 5
29 31 33 34 34 35 36 34 32 32 26 16 7 28 16 17 9 17 9 7 5 4 7 13 16 9 6 8 6 5 4 0 1 4 5 4 6 5 5 6 5 4 3 6 4 10 9
29 31 34 33 35 36 36 35 37 20 19 21 22 17 12 20 18 14 3 2 3 1 8 17 8 7 8 9 10 9 1 3 3 2 2 2 3 3 5 4 4 3 8 3 2 3 6
30 32 33 34 34 34 34 36 24 20 18 19 16 9 15 21 16 5 4 3 3 4 3 2 2 6 6 7 3 4 2 1 2 4 1 6 2 3 4 7 8 5 7 1 1 4 4
30 32 31 32 31 31 31 22 25 21 17 12 8 10 13 10 6 1 2 3 6 7 3 4 3 2 5 4 5 5 5 2 5 4 4 5 4 5 3 1 2 3 12 9 5 5 6
29 30 30 30 30 28 28 17 22 24 17 6 7 7 4 5 2 3 4 7 8 5 6 3 3 1 2 3 4 8 5 4 5 4 5 6 4 1 2 2 2 7 13 13 4 4 6
27 28 28 27 27 24 23 21 23 19 18 3 5 6 5 3 2 5 9 9 7 8 8 4 4 5 6 7 7 8 7 5 4 3 4 4 7 7 9 5 5 6 14 17 9 9 11
27 27 27 27 25 24 20 21 21 21 16 1 6 5 3 6 3 11 5 8 9 6 4 5 3 3 3 5 12 8 7 6 6 1 2 3 5 6 9 7 5 8 11 14 16 13 11
27 25 25 26 23 21 19 21 18 13 13 7 5 4 4 12 6 6 4 11 7 6 7 5 8 6 9 11 8 7 5 7 5 5 3 3 3 1 6 7 6 10 10 8 10 10 8
27 24 24 25 23 20 18 18 15 10 5 5 2 2 2 6 7 6 8 5 5 2 7 10 8 11 15 13 13 13 13 10 7 6 6 4 2 4 2 4 2 2 10 8 3 6 5
26 23 25 23 23 22 19 13 10 3 6 5 3 1 6 11 9 6 6 8 4 5 8 7 9 7 4 4 4 9 10 11 12 11 6 3 3 2 2 4 2 1 1 2 4 2 2
24 25 25 24 24 25 17 3 7 6 5 5 3 2 7 11 11 13 9 9 10 12 8 9 7 7 1 4 2 3 2 2 6 7 9 7 2 2 2 3 2 4 2 1 2 2 4
23 22 22 22 22 21 11 17 13 7 8 6 6 4 1 10 5 2 4 4 10 6 7 5 3 4 4 2 1 2 3 2 2 2 4 5 3 4 2 1 2 3 3 1 2 2 5
21 20 20 20 21 9 11 8 11 13 10 6 5 6 1 9 3 3 3 4 1 2 6 3 2 2 2 3 4 3 2 1 1 2 2 2 2 4 3 3 1 3 4 1 2 3 3
18 19 17 17 19 5 7 7 10 12 12 6 5 8 3 6 5 3 3 2 1 2 4 4 2 2 1 1 1 1 1 1 2 0 2 2 2 2 1 2 3 9 5 3 3 2 1
17 18 14 14 14 4 9 12 14 13 7 4 4 3 10 9 5 3 5 5 4 3 3 1 3 1 2 0 0 1 1 1 2 1 2 2 3 3 3 3 2 9 1 3 2 1 1
Wind_Direction
338 340 335 334 334 332 328 326 324 330 331 329 329 328 330 322 319 324 259 190 181 193 181 168 166 169 229 238 254 132 144 193 179 227 255 261 262 258 256 263 260 253 261 262 267 259 259
336 332 328 329 325 323 320 315 314 315 320 323 325 329 328 324 321 320 203 168 169 186 187 173 159 172 228 248 68 175 203 210 229 227 252 256 268 287 284 273 270 274 278 276 267 260 267
333 329 329 331 328 322 320 320 312 310 313 318 325 327 330 327 323 321 163 158 163 168 166 189 159 193 227 233 122 177 183 226 244 240 258 252 273 263 283 281 262 271 274 274 263 259 244
329 327 329 329 324 329 322 319 315 312 313 310 318 326 328 329 327 316 147 158 158 161 158 186 179 194 245 119 278 223 230 244 237 248 256 273 277 267 257 260 270 273 267 260 253 233 240
327 330 332 334 329 328 325 321 314 314 316 316 318 320 325 331 327 229 139 144 142 136 157 154 164 233 246 127 212 225 225 237 263 242 250 253 258 244 250 239 264 248 259 254 264 236 214
329 326 328 324 323 323 322 327 320 315 310 316 315 320 316 329 335 154 125 121 146 143 175 171 87 226 212 182 153 192 174 245 253 257 253 232 223 235 228 236 251 270 262 259 252 224 195
332 327 324 331 325 322 322 323 322 319 316 311 308 321 311 318 331 155 131 127 107 138 211 190 194 151 126 127 170 194 154 229 242 237 241 200 217 225 235 231 253 269 261 279 272 242 211
329 329 321 324 322 319 315 319 319 316 315 313 315 314 313 311 320 255 164 215 190 164 208 220 215 233 229 215 198 181 160 224 216 243 219 224 245 252 296 271 266 256 254 262 268 228 222
327 331 324 326 323 316 319 315 313 309 308 305 306 303 311 311 317 158 198 252 176 252 241 160 209 218 199 188 220 170 190 245 258 261 249 253 257 315 260 266 247 248 247 262 269 191 214
326 326 331 329 319 323 318 314 308 300 293 291 290 293 302 315 293 184 215 206 259 269 232 170 190 177 159 170 280 161 204 272 245 268 280 270 276 274 272 267 237 247 233 228 47 159 167
328 326 331 323 328 322 313 313 309 305 299 290 281 282 280 266 276 243 337 181 212 254 204 139 137 132 161 169 115 196 176 224 263 272 208 289 283 312 285 281 299 143 106 110 157 233 128
329 328 329 335 326 321 322 316 312 303 291 285 277 265 262 249 237 253 93 102 241 204 207 147 139 166 145 183 165 113 184 235 265 276 231 246 267 340 324 308 333 156 166 223 220 235 114
330 332 334 329 323 326 324 321 316 307 297 281 257 248 231 193 210 162 123 151 193 240 160 156 163 154 157 162 174 187 205 212 255 274 251 265 318 317 299 338 328 241 193 223 218 97 75
332 335 335 331 331 330 328 324 319 311 300 272 246 224 213 219 216 161 151 215 224 102 143 154 145 146 159 158 233 247 216 259 243 271 316 322 118 347 135 237 224 194 298 313 20 114 104
336 337 336 334 332 333 332 328 328 325 322 356 229 183 188 204 192 165 157 229 49 142 150 148 133 141 178 183 187 198 242 228 224 344 319 334 31 316 258 342 357 349 307 327 86 90 79
341 341 338 335 339 337 336 338 334 357 18 34 73 112 157 170 152 156 204 18 7 46 152 148 123 194 162 176 191 208 171 23 346 289 2 353 65 317 315 303 243 251 328 301 17 97 72
346 344 338 342 342 341 347 347 43 29 8 356 68 80 113 131 133 116 234 66 103 115 155 136 112 159 148 158 149 110 42 1 272 4 258 313 347 319 308 17 6 352 12 339 29 11 95
346 343 344 346 345 349 358 24 40 27 357 28 50 63 113 103 103 350 18 11 119 121 95 91 73 84 155 136 100 97 91 102 342 338 20 25 354 49 32 312 272 288 22 11 344 38 28
344 343 347 348 348 357 14 42 29 33 27 42 70 69 25 336 125 121 112 109 99 99 53 55 90 297 190 117 113 98 103 56 41 19 8 359 13 321 124 181 97 41 19 14 24 56 31
345 345 349 348 350 358 7 7 352 8 7 40 107 99 50 23 250 112 87 115 95 47 60 56 96 121 119 76 84 121 109 59 44 36 352 299 42 39 53 49 337 23 22 28 46 43 48
345 348 347 347 351 353 359 357 355 347 358 108 43 67 154 111 106 87 66 127 93 62 48 27 66 70 101 103 104 96 93 123 80 53 31 7 63 50 54 45 59 44 35 32 50 33 62
343 348 347 346 353 351 353 349 350 347 345 64 99 126 97 92 87 85 122 124 78 93 6 61 83 58 88 73 60 102 82 35 49 43 60 22 119 62 50 38 85 75 45 44 40 39 76
340 347 345 347 347 349 350 339 334 331 354 89 91 123 101 136 90 92 85 112 83 49 53 45 61 88 80 56 69 72 76 70 53 17 34 32 76 7 67 2 355 68 18 28 41 33 359
339 344 345 347 347 344 341 327 323 352 42 82 70 287 136 108 80 87 101 101 63 42 103 37 18 89 88 66 83 89 83 73 56 47 21 90 77 42 347 284 46 77 34 297 319 352 58
341 344 347 348 348 341 333 291 122 71 38 69 57 314 107 90 103 94 95 105 110 83 58 57 43 63 39 304 141 139 126 172 44 36 30 18 1 47 330 36 120 149 144 229 337 172 181
342 343 348 350 354 356 73 109 96 73 60 75 53 326 123 128 68 355 81 95 124 107 73 78 54 316 306 313 288 30 56 10 18 7 14 346 340 310 336 1 308 74 116 77 296 207 151
340 343 348 352 3 50 102 86 75 60 63 92 71 0 68 97 50 346 62 57 11 62 102 148 344 290 256 350 46 38 74 352 288 336 346 323 296 248 233 274 181 120 111 20 267 48 125
341 342 348 354 359 89 73 66 39 30 36 66 54 16 23 93 75 21 21 12 349 329 142 125 244 200 282 36 21 91 266 111 260 275 304 281 268 216 207 244 252 154 136 230 44 55 126
341 341 344 354 354 125 91 71 49 28 15 344 79 26 29 78 100 85 84 51 24 338 335 144 329 12 349 188 160 157 204 195 345 276 184 261 298 331 260 27 88 187 327 60 20 20 190